{"data":{"norad_id":57700,"epoch":"2026-09-19T22:45:20.018304Z","epoch_age_seconds":178767,"freshness":"STALE","line1":"1 57700U 23129C   26262.94814836 -.00000049  00000+0  77444-5 0  9991","line2":"2 57700  43.0036 108.3388 0001279 265.4566  94.6139 15.27576644170165","mean_motion":15.27576644,"eccentricity":0.0001279,"inclination_deg":43.0036,"raan_deg":108.3388,"arg_perigee_deg":265.4566,"mean_anomaly_deg":94.6139,"bstar":7.7444e-6,"rev_number":17016,"period_min":94.266955812399,"perigee_km":482.1815981424,"apogee_km":483.93669211633,"semimajor_km":6861.1961451294,"source":"CELESTRAK","updated_at":"2026-09-21T09:00:33.674167Z"}}